"Pseudo-MPEC" for ZTF03hH

Created 2019 Jun 18 10:08:06 UT using Find_Orb

Click here for an explanation of pseudo-MPECs

 
 Astrometry: 
     ZTF03hH  C2019 06 11.36602018 09 15.12 +19 49 19.2    ~6BI7 20.75rUNEOCPI41
     ZTF03hH  C2019 06 11.36873018 09 14.66 +19 49 13.6    ~6BI7 20.78rUNEOCPI41
     ZTF03hH  C2019 06 11.37685018 09 13.34 +19 48 56.4    ~6BI7 20.71rUNEOCPI41
     ZTF03hH  C2019 06 11.38588018 09 11.88 +19 48 37.5    ~6BI7 21.01rUNEOCPI41

Station data:
(I41) Palomar Mountain--ZTF  (N33.357340 W116.859780)  US/California. 1.2-m
   f/2.44 Oschin Schmidt + CCD.

Orbital elements:  ZTF03hH
   Perihelion 2019 Jan 1.565751 +/- 106 TT = 13:34:40 (JD 2458485.065751)
Epoch 2019 Jun 11.0 TT = JDT 2458645.5   Earth MOID: 0.0105   AutoNEOCP
M 150.17453612 +/- 100              (J2000 ecliptic)
n   0.93605035 +/- 0.422            Peri.  352.14684 +/- 80
a   1.03499100 +/- 0.311            Node   115.67259 +/- 47
e   0.0398041 +/- 0.278             Incl.    4.89723 +/- 22
P   1.05/384.59d           H 24.9   G  0.15   U 12.2  SR
q 0.99379411 +/- 0.397    Q 1.07618788 +/- 31.8
From 4 observations 2019 June 11 (28.6 min); mean residual 0".09
Residuals in arcseconds: 
190611 I41  .14+  .00     190611 I41  .08-  .10-    
190611 I41  .12-  .06+    190611 I41  .06+  .05+    

Ephemerides (geocentric):
Date (UTC) HH   RA              Dec         delta   r     elong  mag " sig PA
---- -- -- --  -------------   -----------  ------ ------ -----  --- ---- ---
2019 06 18 10  17 54 02.151   +14 51 18.16  .07170 1.0732 141.7 20.8  36d 165
2019 06 18 11  17 53 56.436   +14 49 12.91  .07168 1.0732 141.7 20.8  37d 165
2019 06 18 12  17 53 50.718   +14 47 07.44  .07165 1.0732 141.8 20.8  37d 165
2019 06 18 13  17 53 44.997   +14 45 01.74  .07162 1.0732 141.8 20.8  37d 165
2019 06 18 14  17 53 39.274   +14 42 55.81  .07160 1.0732 141.8 20.8  37d 165
2019 06 18 15  17 53 33.547   +14 40 49.66  .07157 1.0732 141.9 20.8  37d 165
2019 06 18 16  17 53 27.818   +14 38 43.28  .07155 1.0732 141.9 20.8  37d 165
2019 06 18 17  17 53 22.086   +14 36 36.67  .07152 1.0732 142.0 20.8  37d 165
2019 06 18 18  17 53 16.351   +14 34 29.83  .07150 1.0733 142.0 20.8  37d 165
2019 06 18 19  17 53 10.613   +14 32 22.77  .07147 1.0733 142.0 20.8  37d 165
2019 06 18 20  17 53 04.873   +14 30 15.48  .07145 1.0733 142.1 20.8  38d 165
2019 06 18 21  17 52 59.130   +14 28 07.96  .07142 1.0733 142.1 20.8  38d 165
2019 06 18 22  17 52 53.385   +14 26 00.22  .07140 1.0733 142.1 20.8  38d 165
2019 06 18 23  17 52 47.636   +14 23 52.24  .07137 1.0733 142.2 20.8  38d 165
2019 06 19 00  17 52 41.886   +14 21 44.05  .07135 1.0733 142.2 20.8  38d 165
2019 06 19 01  17 52 36.132   +14 19 35.62  .07132 1.0733 142.2 20.8  38d 165
2019 06 19 02  17 52 30.376   +14 17 26.97  .07130 1.0733 142.3 20.8  38d 165
2019 06 19 03  17 52 24.617   +14 15 18.10  .07128 1.0733 142.3 20.8  38d 165
2019 06 19 04  17 52 18.856   +14 13 08.99  .07125 1.0734 142.4 20.8  39d 165
2019 06 19 05  17 52 13.092   +14 10 59.66  .07123 1.0734 142.4 20.7  39d 165
2019 06 19 06  17 52 07.326   +14 08 50.11  .07120 1.0734 142.4 20.7  39d 165
2019 06 19 07  17 52 01.557   +14 06 40.33  .07118 1.0734 142.5 20.7  39d 165
2019 06 19 08  17 51 55.786   +14 04 30.32  .07115 1.0734 142.5 20.7  39d 165
2019 06 19 09  17 51 50.013   +14 02 20.09  .07113 1.0734 142.5 20.7  39d 165
2019 06 19 10  17 51 44.236   +14 00 09.63  .07111 1.0734 142.6 20.7  39d 165
2019 06 19 11  17 51 38.458   +13 57 58.94  .07108 1.0734 142.6 20.7  39d 165
2019 06 19 12  17 51 32.677   +13 55 48.03  .07106 1.0734 142.7 20.7  39d 165
2019 06 19 13  17 51 26.893   +13 53 36.90  .07103 1.0734 142.7 20.7  39d 165
2019 06 19 14  17 51 21.108   +13 51 25.54  .07101 1.0735 142.7 20.7  39d 165
2019 06 19 15  17 51 15.320   +13 49 13.95  .07099 1.0735 142.8 20.7  40d 165
2019 06 19 16  17 51 09.529   +13 47 02.14  .07096 1.0735 142.8 20.7  40d 165
2019 06 19 17  17 51 03.736   +13 44 50.11  .07094 1.0735 142.8 20.7  40d 165
2019 06 19 18  17 50 57.941   +13 42 37.85  .07092 1.0735 142.9 20.7  40d 165
2019 06 19 19  17 50 52.144   +13 40 25.37  .07089 1.0735 142.9 20.7  40d 165
2019 06 19 20  17 50 46.344   +13 38 12.66  .07087 1.0735 142.9 20.7  40d 165
2019 06 19 21  17 50 40.543   +13 35 59.73  .07085 1.0735 143.0 20.7  40d 165
2019 06 19 22  17 50 34.739   +13 33 46.57  .07082 1.0735 143.0 20.7  40d 165
2019 06 19 23  17 50 28.932   +13 31 33.19  .07080 1.0735 143.0 20.7  40d 165
2019 06 20 00  17 50 23.124   +13 29 19.59  .07078 1.0735 143.1 20.7  40d 165
2019 06 20 01  17 50 17.313   +13 27 05.76  .07075 1.0736 143.1 20.7  40d 165
2019 06 20 02  17 50 11.501   +13 24 51.71  .07073 1.0736 143.2 20.7  40d 165
2019 06 20 03  17 50 05.686   +13 22 37.43  .07071 1.0736 143.2 20.7  41d 165
2019 06 20 04  17 49 59.869   +13 20 22.94  .07068 1.0736 143.2 20.7  41d 165
2019 06 20 05  17 49 54.050   +13 18 08.22  .07066 1.0736 143.3 20.7  41d 165
2019 06 20 06  17 49 48.229   +13 15 53.27  .07064 1.0736 143.3 20.7  41d 165
2019 06 20 07  17 49 42.406   +13 13 38.11  .07062 1.0736 143.3 20.7  41d 165
2019 06 20 08  17 49 36.581   +13 11 22.72  .07059 1.0736 143.4 20.7  41d 165
2019 06 20 09  17 49 30.754   +13 09 07.11  .07057 1.0736 143.4 20.7  41d 165